Location: Drebach
(50.6670°N, 13.0330°E)
Time: 06:30:22
(UTC+01:00)

ISS - Pass Details

Date: 28 January 2021
Orbit: 417 x 422 km, 51.6° (Epoch: 08 March)

Event Time Altitude Azimuth Distance (km) Brightness Sun altitude
Rises 18:48:56 0° 277° (W) 2,373 1.6 -18.2°
Reaches altitude 10° 18:51:02 10° 279° (W) 1,509 0.2 -18.5°
Maximum altitude 18:54:25 76° 5° (N) 440 -3.8 -19.1°
Enters shadow 18:54:40 71° 50° (NE) 451 -3.9 -19.1°
